CAPE
1 1 0 0 0 0 0 0 0 0 0 0 0 0 0 0 0 0 0 0 0 0 0 0 0 0 0 0 0 0 0 0 0 4 51 3 1 87 56 75 4 76 130 210 93
1 0 0 0 0 0 0 0 0 0 0 0 0 0 0 0 0 0 0 0 0 0 0 0 0 0 0 0 0 0 0 0 0 22 1 0 0 113 24 87 0 109 107 65 4
0 0 0 0 0 0 0 0 0 0 0 0 0 0 0 0 0 0 0 0 0 0 0 0 0 0 0 0 0 0 0 0 0 0 13 15 24 29 5 0 105 128 309 17 7
1 0 0 0 0 0 0 0 0 0 0 0 0 0 0 0 0 0 0 0 0 0 0 0 0 0 0 0 0 0 0 0 0 0 0 0 115 113 8 8 83 0 133 138 79
0 0 0 0 0 0 0 0 0 0 0 0 0 0 0 0 0 0 0 0 0 0 0 0 0 0 0 0 0 0 0 0 0 0 0 0 12 42 17 0 0 33 16 227 22
1 0 0 0 0 0 0 0 0 0 0 0 0 0 0 0 0 0 0 0 0 0 0 0 0 0 0 0 0 0 0 0 0 0 0 0 0 25 1 3 3 7 0 30 23
2 1 0 0 0 1 0 0 0 0 0 0 0 0 0 0 0 0 0 0 0 0 0 0 0 0 0 0 0 0 0 0 0 0 0 0 0 0 40 0 18 77 13 44 93
1 0 0 0 0 0 0 0 0 0 0 0 0 0 0 0 0 0 0 0 0 0 0 0 0 0 0 0 0 0 0 0 0 0 0 0 0 0 3 1 31 69 89 60 36
0 0 0 0 0 0 0 0 0 0 0 0 0 0 0 0 0 0 0 0 0 0 0 0 0 0 0 0 0 0 0 0 0 0 0 0 0 0 0 20 56 70 73 93 105
0 0 0 0 0 0 0 0 0 0 0 0 0 0 0 0 0 0 0 0 0 0 0 0 0 0 0 0 0 0 0 0 0 0 0 0 0 0 0 0 25 45 175 669 470
0 0 0 0 0 0 0 0 0 0 0 0 0 0 0 0 0 0 0 0 0 0 0 0 0 0 0 0 0 0 0 0 0 0 0 0 0 0 0 0 9 202 156 946 644
0 0 0 0 0 0 0 0 0 0 0 0 0 0 0 0 0 0 0 0 0 0 0 0 0 0 0 0 0 0 0 0 0 0 0 0 0 0 0 0 2 691 203 235 373
0 0 0 0 0 0 0 0 0 0 0 0 0 0 0 0 0 0 0 0 0 0 0 0 0 0 0 0 0 0 0 0 0 0 0 0 0 0 0 0 392 670 346 86 13
0 0 0 0 0 0 0 0 0 0 0 0 0 0 0 0 0 0 0 0 0 0 0 0 0 0 0 0 0 0 0 0 0 0 0 0 0 0 0 0 84 153 331 0 3
0 0 0 0 0 0 0 0 0 0 0 0 0 0 0 0 0 0 0 0 0 0 0 0 0 0 0 0 0 0 0 0 0 0 0 0 0 0 0 0 207 301 439 231 358
0 0 0 0 0 0 0 0 0 0 0 0 0 0 0 0 0 0 0 0 0 0 0 0 0 0 0 0 0 0 0 0 0 0 0 0 0 0 0 26 33 27 265 39 3
0 0 0 0 0 0 0 0 0 0 0 0 0 0 0 0 0 0 0 0 0 0 0 0 0 0 0 0 0 0 0 0 0 0 0 0 0 0 0 92 13 0 2 0 0
0 0 0 0 0 0 0 0 0 0 0 0 0 0 0 0 0 0 0 0 0 0 0 0 0 0 0 0 0 0 0 0 0 0 0 0 0 0 207 52 2 0 0 0 0
0 0 0 0 0 0 0 0 0 0 0 0 0 0 0 0 0 0 0 0 0 0 0 0 0 0 0 0 0 0 0 0 0 0 0 0 43 96 133 47 13 0 0 0 0
0 0 0 0 0 0 0 0 0 0 0 0 0 0 0 0 0 0 0 0 0 0 0 0 0 0 0 0 0 0 0 0 0 0 0 0 12 59 173 84 16 15 13 0 0
0 0 0 0 0 0 0 0 0 0 0 0 0 0 0 0 0 0 0 0 0 0 0 0 0 0 0 0 0 0 0 0 0 0 0 0 0 22 22 46 15 3 1 0 0
0 0 0 0 0 0 0 0 0 0 0 0 0 0 0 0 0 0 0 0 0 0 0 0 0 0 0 0 0 0 0 0 0 0 0 0 54 34 67 20 18 0 1 0 0
0 0 0 0 0 0 0 0 0 0 0 0 0 0 0 0 0 0 0 0 0 0 0 0 0 0 0 0 0 0 0 0 0 5 0 42 13 0 36 5 1 13 4 0 0
0 0 0 0 0 0 0 0 0 0 0 0 0 0 0 0 0 0 0 0 0 0 185 6 4 0 0 0 1 0 0 0 0 0 0 0 0 61 37 104 54 30 0 21 24
0 0 0 0 0 0 0 0 0 0 0 0 0 0 0 0 0 0 0 0 0 0 17 43 0 76 0 0 1 0 0 0 0 0 0 0 0 171 212 144 219 0 0 15 64
0 0 0 0 0 0 0 0 0 0 0 0 0 0 0 0 0 0 0 0 0 0 0 132 0 94 33 0 0 0 0 0 0 0 2 3 0 229 125 40 132 31 0 12 129
0 0 0 0 0 0 0 0 0 0 0 0 0 0 0 0 0 0 0 0 0 0 0 0 25 1 0 0 2 0 0 0 22 6 0 0 135 192 150 157 18 0 2 155 10
CIN
-0 -0 -0 -0 -0 -0 -0 -0 -0 -0 -0 -0 -0 -0 -0 -0 -0 -0 -0 -0 -0 -0 -0 -0 -0 -0 -0 -0 -0 -0 -0 -0 -0 -50 -123 -260 -189 -294 -375 -331 -40 -59 -145 -197 -187
-0 -0 -0 -0 -0 -0 -0 -0 -0 -0 -0 -0 -0 -0 -0 -0 -0 -0 -0 -0 -0 -0 -0 -0 -0 -0 -0 -0 -0 -0 -0 -0 -0 -92 -28 -0 -0 -378 -447 -256 -29 -164 -156 -211 -163
-0 -0 -0 -0 -0 -0 -0 -0 -0 -0 -0 -0 -0 -0 -0 -0 -0 -0 -0 -0 -0 -0 -0 -0 -0 -0 -0 -0 -0 -0 -0 -0 -0 -0 -108 -122 -277 -479 -276 -0 -142 -131 -175 -159 -323
-0 -0 -0 -0 -0 -0 -0 -0 -0 -0 -0 -0 -0 -0 -0 -0 -0 -0 -0 -0 -0 -0 -0 -0 -0 -0 -0 -0 -0 -0 -0 -0 -0 -0 -0 -0 -158 -191 -303 -243 -281 -0 -180 -267 -219
-0 -0 -0 -0 -0 -0 -0 -0 -0 -0 -0 -0 -0 -0 -0 -0 -0 -0 -0 -0 -0 -0 -0 -0 -0 -0 -0 -0 -0 -0 -0 -0 -0 -0 -0 -0 -146 -317 -385 -0 -0 -366 -123 -258 -413
-0 -0 -0 -0 -0 -0 -0 -0 -0 -0 -0 -0 -0 -0 -0 -0 -0 -0 -0 -0 -0 -0 -0 -0 -0 -0 -0 -0 -0 -0 -0 -0 -0 -0 -0 -0 -0 -327 -85 -275 -234 -267 -0 -358 -400
-0 -0 -0 -0 -0 -0 -0 -0 -0 -0 -0 -0 -0 -0 -0 -0 -0 -0 -0 -0 -0 -0 -0 -0 -0 -0 -0 -0 -0 -0 -0 -0 -0 -0 -0 -0 -0 -0 -334 -0 -394 -398 -421 -314 -227
-0 -0 -0 -0 -0 -0 -0 -0 -0 -0 -0 -0 -0 -0 -0 -0 -0 -0 -0 -0 -0 -0 -0 -0 -0 -0 -0 -0 -0 -0 -0 -0 -0 -0 -0 -0 -0 -0 -265 -55 -254 -178 -156 -199 -309
-0 -0 -0 -0 -0 -0 -0 -0 -0 -0 -0 -0 -0 -0 -0 -0 -0 -0 -0 -0 -0 -0 -0 -0 -0 -0 -0 -0 -0 -0 -0 -0 -0 -0 -0 -0 -0 -0 -0 -264 -264 -265 -175 -169 -175
-0 -0 -0 -0 -0 -0 -0 -0 -0 -0 -0 -0 -0 -0 -0 -0 -0 -0 -0 -0 -0 -0 -0 -0 -0 -0 -0 -0 -0 -0 -0 -0 -0 -0 -0 -0 -0 -0 -0 -0 -190 -157 -324 -365 -620
-0 -0 -0 -0 -0 -0 -0 -0 -0 -0 -0 -0 -0 -0 -0 -0 -0 -0 -0 -0 -0 -0 -0 -0 -0 -0 -0 -0 -0 -0 -0 -0 -0 -0 -0 -0 -0 -0 -0 -0 -26 -283 -402 -496 -606
-0 -0 -0 -0 -0 -0 -0 -0 -0 -0 -0 -0 -0 -0 -0 -0 -0 -0 -0 -0 -0 -0 -0 -0 -0 -0 -0 -0 -0 -0 -0 -0 -0 -0 -0 -0 -0 -0 -0 -0 -29 -290 -506 -575 -636
-0 -0 -0 -0 -0 -0 -0 -0 -0 -0 -0 -0 -0 -0 -0 -0 -0 -0 -0 -0 -0 -0 -0 -0 -0 -0 -0 -0 -0 -0 -0 -0 -0 -0 -0 -0 -0 -0 -0 -0 -202 -284 -506 -680 -939
-0 -0 -0 -0 -0 -0 -0 -0 -0 -0 -0 -0 -0 -0 -0 -0 -0 -0 -0 -0 -0 -0 -0 -0 -0 -0 -0 -0 -0 -0 -0 -0 -0 -0 -0 -0 -0 -0 -0 -0 -223 -309 -491 -0 -935
-0 -0 -0 -0 -0 -0 -0 -0 -0 -0 -0 -0 -0 -0 -0 -0 -0 -0 -0 -0 -0 -0 -0 -0 -0 -0 -0 -0 -0 -0 -0 -0 -0 -0 -0 -0 -0 -0 -0 -0 -282 -338 -409 -510 -551
-0 -0 -0 -0 -0 -0 -0 -0 -0 -0 -0 -0 -0 -0 -0 -0 -0 -0 -0 -0 -0 -0 -0 -0 -0 -0 -0 -0 -0 -0 -0 -0 -0 -0 -0 -0 -0 -0 -0 -112 -333 -449 -406 -564 -448
-0 -0 -0 -0 -0 -0 -0 -0 -0 -0 -0 -0 -0 -0 -0 -0 -0 -0 -0 -0 -0 -0 -0 -0 -0 -0 -0 -0 -0 -0 -0 -0 -0 -0 -0 -0 -0 -0 -0 -210 -218 -0 -226 -0 -0
-0 -0 -0 -0 -0 -0 -0 -0 -0 -0 -0 -0 -0 -0 -0 -0 -0 -0 -0 -0 -0 -0 -0 -0 -0 -0 -0 -0 -0 -0 -0 -0 -0 -0 -0 -0 -0 -0 -157 -260 -100 -0 -0 -0 -0
-0 -0 -0 -0 -0 -0 -0 -0 -0 -0 -0 -0 -0 -0 -0 -0 -0 -0 -0 -0 -0 -0 -0 -0 -0 -0 -0 -0 -0 -0 -0 -0 -0 -0 -0 -0 -31 -102 -182 -258 -338 -0 -69 -0 -0
-0 -0 -0 -0 -0 -0 -0 -0 -0 -0 -0 -0 -0 -0 -0 -0 -0 -0 -0 -0 -0 -0 -0 -0 -0 -0 -0 -0 -0 -0 -0 -0 -0 -0 -0 -0 -13 -70 -142 -205 -300 -331 -389 -0 -0
-0 -0 -0 -0 -0 -0 -0 -0 -0 -0 -0 -0 -0 -0 -0 -0 -0 -0 -0 -0 -0 -0 -0 -0 -0 -0 -0 -0 -0 -0 -0 -0 -0 -0 -0 -0 -0 -82 -116 -180 -254 -294 -308 -0 -0
-0 -0 -0 -0 -0 -0 -0 -0 -0 -0 -0 -0 -0 -0 -0 -0 -0 -0 -0 -0 -0 -0 -0 -0 -0 -0 -0 -0 -0 -0 -0 -0 -0 -0 -2 -0 -40 -105 -160 -137 -179 -1 -254 -0 -0
-0 -0 -0 -0 -0 -0 -0 -0 -0 -0 -0 -0 -0 -0 -0 -0 -0 -0 -0 -0 -0 -0 -0 -0 -0 -0 -0 -0 -0 -0 -0 -0 -0 -21 -0 -25 -47 -0 -108 -57 -131 -177 -183 -0 -0
-0 -0 -0 -0 -0 -0 -0 -0 -0 -0 -0 -0 -0 -0 -0 -0 -0 -0 -0 -0 -0 -0 -242 -155 -41 -0 -0 -0 -17 -0 -0 -0 -0 -0 -0 -0 -0 -79 -255 -287 -453 -427 -0 -416 -229
-0 -0 -0 -0 -0 -0 -0 -0 -0 -0 -0 -0 -0 -0 -0 -0 -0 -0 -0 -0 -0 -0 -146 -56 -4 -58 -0 -0 -11 -0 -0 -0 -0 -0 -0 -0 -0 -137 -243 -448 -493 -0 -0 -427 -432
-0 -0 -0 -0 -0 -0 -0 -0 -0 -0 -0 -0 -0 -0 -0 -0 -0 -0 -0 -0 -0 -0 -0 -96 -0 -67 -34 -0 -0 -0 -0 -0 -0 -0 -7 -10 -0 -135 -374 -543 -534 -518 -8 -426 -289
-0 -0 -0 -0 -0 -0 -0 -0 -0 -0 -0 -0 -0 -0 -0 -0 -0 -0 -0 -0 -0 -0 -0 -28 -54 -13 -0 -0 -19 -2 -0 -0 -74 -58 -0 -0 -153 -274 -288 -249 -156 -0 -142 -248 -81
Wind_Speed
19 19 19 18 18 18 19 19 18 18 18 17 15 13 12 12 14 3 8 13 9 13 2 6 6 7 7 7 9 7 2 8 13 4 7 6 6 5 10 15 28 4 17 18 16
19 19 19 20 19 19 19 20 19 18 17 17 15 13 11 11 4 10 13 15 9 9 5 8 10 9 4 6 6 4 2 9 14 2 4 3 12 15 15 18 27 11 15 16 16
19 20 20 20 21 19 19 20 20 19 17 17 15 13 10 8 5 10 4 24 12 10 6 7 10 8 8 7 9 9 9 12 17 5 9 7 20 6 19 14 7 11 5 5 10
20 20 21 21 22 21 21 21 20 20 19 17 14 11 8 3 3 3 4 14 14 8 6 6 7 6 6 9 9 8 13 13 14 4 5 7 15 7 10 5 14 9 13 6 10
20 21 22 23 23 21 21 21 21 21 19 16 12 7 4 3 13 5 8 7 7 5 9 10 7 7 7 7 9 8 15 13 12 10 5 2 11 10 8 14 12 7 19 9 7
20 22 23 23 23 22 22 22 21 20 18 15 9 3 3 7 11 12 10 7 9 8 8 9 10 10 9 9 6 11 12 11 10 11 5 2 20 15 15 17 12 15 15 12 11
20 21 22 23 23 23 23 23 22 20 18 12 6 5 6 19 2 7 13 8 9 9 9 14 15 6 7 10 11 9 9 9 6 7 5 3 6 9 22 17 20 20 19 21 20
19 21 23 24 24 25 25 25 24 21 14 8 4 5 10 9 13 16 12 9 10 11 13 13 10 8 4 9 11 9 7 5 9 9 10 4 9 10 23 17 15 21 22 22 25
21 22 24 25 26 26 26 29 24 17 7 4 4 2 11 10 6 11 15 9 10 10 11 14 5 6 5 5 7 6 7 9 13 13 8 9 9 9 17 19 15 13 16 20 4
21 23 24 26 26 26 28 27 10 6 4 7 8 4 8 9 8 12 8 9 10 11 8 5 2 2 4 1 8 10 6 9 11 12 13 7 7 9 10 10 23 17 15 23 20
23 24 25 27 28 24 16 7 2 2 4 9 7 7 16 9 5 8 9 8 8 5 6 7 3 8 11 12 15 12 11 14 12 5 8 9 7 10 9 4 6 18 19 19 21
24 25 27 30 30 29 4 2 6 6 11 14 22 22 26 20 12 9 10 9 7 7 7 6 11 11 14 15 15 16 9 10 9 11 4 9 7 3 5 6 7 18 15 17 14
22 24 27 31 34 9 6 11 8 9 5 12 23 16 19 13 15 9 7 11 8 8 9 11 11 16 17 16 13 10 2 8 8 13 6 4 2 3 10 4 17 16 16 12 18
22 23 25 33 7 8 6 12 10 8 4 10 9 10 13 15 16 10 15 10 9 12 11 9 18 17 15 13 10 5 3 8 12 7 4 3 6 6 9 10 14 16 19 17 19
22 23 23 18 10 6 8 14 9 4 5 4 11 6 12 15 2 18 12 10 15 12 8 14 14 11 16 10 9 7 5 5 8 9 4 12 3 9 5 9 11 16 22 18 18
22 23 21 10 4 12 14 11 4 0 9 6 6 8 10 17 21 3 12 9 9 11 13 12 11 15 18 11 9 4 5 7 4 3 4 10 3 10 7 10 9 15 20 19 18
23 24 17 7 7 6 12 5 2 4 9 6 8 7 9 13 17 18 11 12 11 10 16 15 17 14 11 8 5 5 1 3 5 4 9 7 6 15 8 15 18 19 18 18 17
25 30 9 10 10 10 3 3 5 9 12 13 15 10 12 10 15 16 11 14 12 11 3 11 13 17 12 11 8 8 10 8 7 6 6 8 6 11 11 14 14 15 16 17 16
24 5 6 7 13 6 1 4 7 7 9 10 20 11 7 9 11 16 17 13 15 17 15 5 18 15 15 6 11 9 6 10 4 6 3 5 4 6 14 14 14 13 14 13 14
8 6 8 8 13 5 2 5 7 10 15 13 11 11 11 11 7 11 14 12 15 17 17 14 12 17 11 12 10 12 7 3 1 5 5 7 4 5 10 11 11 11 10 9 11
3 5 6 10 5 3 5 6 9 17 17 7 7 15 18 18 13 12 7 16 12 15 14 15 8 23 11 6 15 4 5 3 5 7 7 3 6 9 14 15 15 13 13 16 13
4 4 2 6 3 4 8 8 7 17 20 16 15 15 15 19 15 12 15 12 16 18 18 12 10 9 17 20 10 11 12 10 7 6 3 7 6 1 13 16 19 19 18 15 15
4 5 5 4 4 7 11 19 19 18 18 18 16 15 17 17 8 5 13 18 23 13 17 11 6 7 10 9 6 9 8 7 5 5 7 5 7 6 5 3 5 14 13 11 10
4 4 3 3 4 7 10 13 16 14 18 17 19 17 18 16 10 14 18 17 23 24 14 17 8 14 13 11 5 3 6 7 8 4 6 7 6 3 4 13 15 21 19 17 12
4 6 4 2 6 8 9 10 14 15 16 19 11 15 17 15 15 17 16 20 23 22 6 8 8 8 12 13 13 8 9 11 9 8 8 10 9 9 10 16 18 22 18 19 19
4 5 7 9 7 9 9 8 14 15 14 16 13 17 19 16 17 13 10 14 15 9 8 8 4 7 8 13 18 15 15 11 9 7 6 9 6 7 6 17 17 20 19 18 18
5 5 5 5 5 6 7 11 15 17 11 12 17 17 20 16 23 24 11 11 10 5 11 6 3 5 7 7 8 14 17 16 9 9 7 9 6 9 7 7 13 15 18 16 14
Wind_Direction
4 360 354 352 347 344 344 342 339 334 331 327 328 325 325 325 306 211 236 226 195 222 149 269 264 241 259 254 263 286 326 280 275 285 224 179 98 28 348 3 341 164 131 137 155
360 356 353 348 345 341 339 336 334 330 325 325 326 323 327 336 280 248 231 228 205 162 185 259 268 229 238 263 261 175 242 255 266 192 224 217 117 139 94 2 288 25 103 139 159
356 352 349 345 342 337 332 330 329 327 324 323 323 321 321 321 312 248 293 208 181 174 223 255 259 275 241 246 257 256 239 261 275 218 193 210 153 116 132 182 195 273 164 248 163
352 350 345 342 338 334 328 326 325 324 322 319 318 314 316 256 249 360 354 181 173 191 230 255 266 268 254 255 259 272 266 263 265 246 200 344 146 101 142 223 138 264 249 161 281
350 347 343 338 334 329 325 322 320 320 317 314 311 304 269 227 247 184 130 118 142 203 212 225 248 248 257 262 269 262 262 267 277 297 223 162 88 125 121 196 180 186 270 187 248
347 344 340 335 330 327 323 319 316 314 312 310 300 265 239 253 248 160 150 155 201 186 217 236 244 234 248 258 256 265 280 256 269 287 312 185 134 122 203 196 176 140 230 275 293
344 339 336 332 329 325 322 317 314 308 309 302 275 223 258 239 161 162 163 183 217 185 215 234 244 266 293 303 270 291 291 304 298 259 261 285 298 161 179 198 162 133 229 254 257
342 338 334 330 328 324 320 315 307 301 301 286 183 235 252 254 255 256 237 183 209 201 229 258 272 265 280 305 322 302 320 313 272 263 256 150 261 284 167 174 185 180 192 212 230
340 336 332 328 326 323 320 311 301 287 245 139 176 227 264 268 193 234 245 194 199 227 237 251 312 237 315 297 318 299 232 252 272 251 202 167 236 254 150 178 195 192 220 213 160
338 334 330 326 323 324 322 301 283 312 207 187 261 277 262 239 201 228 189 213 193 216 236 261 347 295 314 280 239 253 259 270 254 263 172 194 215 247 262 220 201 206 59 104 101
338 333 328 325 322 324 338 345 9 58 246 224 207 243 299 222 266 193 221 222 219 168 216 246 180 232 225 234 241 267 277 277 281 303 140 195 209 247 269 227 169 90 97 105 104
337 332 329 325 321 319 271 265 19 265 293 246 249 247 261 273 269 188 187 199 215 194 205 257 225 233 241 245 245 256 280 288 307 338 90 200 224 225 277 292 135 113 108 121 113
335 333 330 325 319 312 299 290 344 337 281 272 230 229 232 240 250 207 211 204 206 208 212 215 244 222 245 262 267 265 285 310 292 313 325 138 309 286 294 328 104 106 107 94 114
332 332 333 333 333 337 286 360 326 3 296 267 196 231 213 229 258 220 203 197 218 220 220 232 237 253 241 245 257 263 299 289 290 325 275 129 256 253 241 252 104 102 115 123 125
328 330 332 327 298 298 317 325 320 30 326 167 162 156 166 197 147 210 225 204 215 228 191 234 242 249 250 233 230 234 290 268 277 313 309 302 78 266 252 219 116 104 122 122 125
323 323 332 322 248 251 297 305 352 7 250 277 123 157 164 203 225 230 205 213 210 241 252 245 225 233 241 245 206 266 276 299 315 43 348 255 225 277 268 147 135 120 118 117 114
320 314 307 278 239 334 325 330 6 231 296 264 161 180 211 198 206 220 209 228 198 210 246 267 263 257 250 225 235 171 171 327 344 341 247 265 269 254 284 150 141 131 120 121 119
321 309 252 217 225 261 288 358 233 268 237 314 319 213 193 218 199 211 216 212 217 215 217 232 261 253 246 197 177 202 161 162 206 220 261 275 249 271 118 100 100 111 121 124 132
317 294 269 222 216 218 298 199 205 209 269 4 337 323 267 212 215 196 221 218 211 198 223 235 233 260 229 210 146 248 235 197 194 275 345 240 114 2 118 122 125 127 132 141 143
325 291 259 224 177 154 187 251 238 258 310 353 318 305 313 295 237 199 200 218 222 207 200 245 276 272 276 227 196 176 199 193 342 247 240 271 237 195 143 143 135 137 141 126 130
272 283 283 137 121 118 216 217 266 274 284 279 280 290 304 306 311 324 282 223 210 204 201 212 193 268 283 263 203 178 230 216 146 159 191 226 266 189 171 161 162 165 150 145 138
295 261 185 95 116 215 232 260 277 284 295 289 295 298 276 289 297 307 293 283 260 202 216 206 194 235 257 267 240 172 189 180 145 275 216 159 265 333 158 176 177 173 154 142 137
274 274 284 115 231 236 256 264 268 267 262 275 273 280 282 285 302 280 299 300 302 296 201 207 222 223 281 302 321 217 197 180 171 144 218 139 264 233 233 167 147 153 126 89 94
283 280 213 146 237 260 281 289 291 292 292 286 267 272 281 278 253 270 281 292 309 302 287 175 175 198 219 238 230 221 184 206 157 158 210 208 229 192 76 88 89 93 99 89 60
247 257 314 283 229 272 258 264 285 294 296 293 311 266 261 277 276 260 269 288 294 296 264 142 187 176 220 210 248 260 274 214 211 203 177 229 228 162 165 131 126 123 129 148 165
296 351 345 303 303 306 309 304 295 290 292 298 290 317 333 264 249 261 271 267 268 339 351 304 215 165 221 218 228 253 270 264 221 260 207 198 204 169 105 120 140 152 159 165 181
21 327 290 300 296 302 274 283 289 283 298 317 332 327 305 303 331 297 267 262 243 307 303 303 332 140 238 222 217 247 233 252 219 213 218 213 164 130 136 134 149 160 169 166 156